Regional Weather Roundup
Issued by NWS

Home | Current Version | Previous Version | Text Only | Print | Product List | Glossary On
Versions: 1 2 3 4 5 6 7 8 9 10 11 12 13 14 15 16 17 18 19 20 21 22 23 24 25 26 27 28 29 30 31 32 33 34 35 36 37 38 39 40 41 42 43 44 45 46 47 48 49 50
000
ASUS43 KFSD 011702
RWRSD

WEATHER ROUNDUP FOR SOUTH DAKOTA
NATIONAL WEATHER SERVICE SIOUX FALLS SD
1200 PM CDT FRI JUL 01 2016

NOTE: "FAIR" INDICATES FEW OR NO CLOUDS BELOW 12,000 FEET WITH NO
SIGNIFICANT WEATHER AND/OR OBSTRUCTIONS TO VISIBILITY.


SDZ001>005-009-010-012>017-011800-
NORTHWEST AND NORTH CENTRAL SOUTH DAKOTA

CITY           SKY/WX    TMP DP  RH WIND       PRES   REMARKS
BUFFALO          N/A     67  50  54 SE17      30.02S
FAITH            N/A     67  47  48 S24G31    30.10F
MOBRIDGE       MOSUNNY   69  48  47 SE14      30.13F
$$

SDZ012>016-024>037-041>051-057-063-072>074-011800-
SOUTHWEST AND SOUTH CENTRAL SOUTH DAKOTA

CITY           SKY/WX    TMP DP  RH WIND       PRES   REMARKS
RAPID CTY ARPT LGT RAIN  62  60  93 S10       30.12R
PIERRE         PTSUNNY   72  48  42 SE14      30.14F
CUSTER         LGT RAIN  56  54  93 SE7G16    30.18F FOG
PHILIP         LGT RAIN  65  50  58 SE8       30.14S
PINE RIDGE     LGT RAIN  63  58  83 SE8G17    30.13F
WINNER         FAIR      73  50  44 SE9       30.17S
$$

SDZ004>011-016>023-039-040-011800-
NORTHEAST SOUTH DAKOTA

CITY           SKY/WX    TMP DP  RH WIND       PRES   REMARKS
ABERDEEN       SUNNY     67  47  48 VRB5      30.18F
WATERTOWN      SUNNY     68  46  45 SW5       30.19S
BROOKINGS      MOSUNNY   67  50  54 S7        30.19S
SISSETON         N/A     66  46  48 W3        30.18F
$$

SDZ017-020-022-023-036>040-048>070-011800-
SOUTHEAST SOUTH DAKOTA

CITY           SKY/WX    TMP DP  RH WIND       PRES   REMARKS
SIOUX FALLS    PTSUNNY   69  51  52 VRB5      30.19S
HURON          SUNNY     66  46  48 SW5       30.18F
CHAMBERLAIN    CLOUDY    71  53  52 SE6       30.17S
MITCHELL       SUNNY     69  47  45 CALM      30.18F
YANKTON        SUNNY     68  50  52 E7        30.17F
$$

ABBREVIATIONS USED IN REMARKS
   TC - TEMPERATURE IN CELSIUS
  WCI - WIND CHILL INDEX
   HX - HEAT INDEX
  VSB - VISIBILITY




USA.gov is the U.S. government's official web portal to all federal, state and local government web resources and services.